CW8593 Weather Reports


Display with metric or nautical units.
time (UTC)temp
F
wind
direction
speed
MPH
gust
MPH
rain 1hr
in
rain 24hr
in
rain mn
in
humidity
%
barometer
mb
20160212093758 54 301 0.0 3.0 0.00 0.02 0.00 88 1004.3
20160212093258 54 235 4.0 8.0 0.00 0.02 0.00 88 1004.5
20160212092758 53 286 0.0 1.0 0.00 0.02 0.00 88 1004.8
20160212092257 53 286 0.0 0.0 0.00 0.02 0.00 89 1004.9
20160212091800 53 286 0.0 1.0 0.00 0.02 0.00 89 1004.9
20160212091257 53 286 0.0 1.0 0.00 0.02 0.00 89 1005.0
20160212085257 53 286 0.0 1.0 0.00 0.02 0.00 89 1004.8
20160212084757 53 286 0.0 1.0 0.00 0.02 0.00 89 1005.4
20160212084257 53 286 0.0 0.0 0.00 0.02 0.00 89 1005.2
20160212083257 52 286 0.0 0.0 0.00 0.03 0.00 90 1005.4
20160212082757 52 286 0.0 2.0 0.00 0.03 0.00 90 1005.4
20160212081258 52 286 0.0 0.0 0.00 0.04 0.00 90 1005.8
20160212080757 52 286 0.0 2.0 0.00 0.04 0.00 90 1005.8
20160212080257 52 286 0.0 2.0 0.00 0.04 0.00 90 1005.9
20160212074758 52 286 0.0 1.0 0.00 0.04 0.00 90 1006.1
20160212073757 52 286 0.0 0.0 0.00 0.04 0.00 90 1006.3
20160212073258 52 286 0.0 0.0 0.00 0.04 0.00 90 1006.5
20160212072257 52 286 0.0 1.0 0.00 0.04 0.00 90 1006.5
20160212071257 52 286 0.0 0.0 0.00 0.04 0.00 90 1006.4
20160212070758 52 286 0.0 0.0 0.00 0.04 0.00 90 1006.5
20160212070258 52 286 0.0 0.0 0.00 0.04 0.00 90 1006.6
20160212065758 51 286 0.0 0.0 0.00 0.04 0.00 90 1006.4
20160212065258 51 286 0.0 0.0 0.00 0.04 0.00 90 1006.3
20160212064757 51 286 0.0 0.0 0.00 0.04 0.00 90 1006.5
20160212064257 51 286 0.0 0.0 0.00 0.04 0.00 90 1006.4
20160212063757 51 286 0.0 0.0 0.00 0.04 0.00 90 1006.5
20160212062257 51 286 0.0 0.0 0.00 0.04 0.00 90 1006.6
20160212061758 51 286 0.0 0.0 0.00 0.04 0.00 90 1006.8
20160212061257 51 286 0.0 0.0 0.00 0.04 0.00 90 1006.8
20160212060757 51 286 0.0 0.0 0.00 0.04 0.00 90 1006.5
20160212060257 51 286 0.0 2.0 0.00 0.04 0.00 90 1006.8
20160212054757 51 286 0.0 2.0 0.00 0.04 0.00 89 1006.0
20160212053757 51 286 0.0 2.0 0.00 0.04 0.00 89 1006.2
20160212052758 51 286 1.0 2.0 0.00 0.04 0.00 89 1007.0
20160212052257 51 286 0.0 1.0 0.00 0.04 0.00 90 1007.3
20160212051757 51 286 0.0 3.0 0.00 0.04 0.00 89 1007.3
20160212051257 51 286 0.0 3.0 0.00 0.04 0.00 89 1007.2
20160212050257 51 286 0.0 0.0 0.00 0.04 0.00 89 1007.0
20160212043757 52 286 0.0 0.0 0.00 0.04 0.00 89 1007.8
20160212043257 52 286 0.0 0.0 0.00 0.04 0.00 89 1007.9
20160212042757 52 286 0.0 2.0 0.00 0.04 0.00 89 1008.0
20160212042257 52 286 2.0 3.0 0.00 0.04 0.00 89 1008.1
20160212040257 52 286 0.0 0.0 0.00 0.04 0.00 89 1008.2
20160212035757 52 286 1.0 2.0 0.00 0.04 0.00 89 1008.3
20160212035257 52 286 1.0 2.0 0.00 0.04 0.00 89 1008.2
20160212034757 52 286 0.0 0.0 0.00 0.05 0.00 89 1008.3
20160212033757 52 286 0.0 1.0 0.00 0.05 0.00 89 1008.6
20160212032757 52 286 0.0 0.0 0.00 0.05 0.00 89 1008.7
20160212031257 52 286 0.0 2.0 0.00 0.05 0.00 89 1008.8
20160212030757 52 286 1.0 3.0 0.00 0.05 0.00 89 1008.7
20160212030257 52 286 1.0 2.0 0.00 0.05 0.00 89 1008.8
20160212025758 52 286 0.0 2.0 0.00 0.05 0.00 89 1008.8
20160212025257 52 286 0.0 0.0 0.00 0.06 0.00 89 1008.9
20160212024758 52 286 0.0 0.0 0.00 0.06 0.00 89 1009.0
20160212023257 52 286 0.0 2.0 0.00 0.06 0.00 89 1009.4
20160212022257 52 286 0.0 0.0 0.00 0.06 0.00 88 1009.7
20160212021758 52 286 0.0 0.0 0.00 0.06 0.00 88 1009.7
20160212020757 52 286 0.0 2.0 0.00 0.06 0.00 88 1009.8
20160212020257 52 286 0.0 3.0 0.00 0.06 0.00 88 1009.8
20160212015257 51 286 2.0 5.0 0.00 0.06 0.00 88 1009.8
20160212014757 51 286 0.0 1.0 0.00 0.06 0.00 88 1009.8
20160212014257 51 286 0.0 0.0 0.00 0.06 0.00 89 1009.9
20160212012758 51 286 0.0 3.0 0.00 0.06 0.00 88 1010.0
20160212012257 51 286 2.0 3.0 0.00 0.06 0.00 88 1010.1
20160212011757 51 286 0.0 3.0 0.00 0.07 0.00 89 1010.1
20160212010258 52 286 2.0 3.0 0.00 0.09 0.00 89 1009.9
20160212005257 52 286 0.0 3.0 0.00 0.09 0.00 89 1010.1
20160212004757 52 286 2.0 5.0 0.00 0.09 0.00 89 1010.2
20160212001257 51 285 0.0 0.0 0.00 0.09 0.00 88 1010.2
20160212000757 51 285 0.0 0.0 0.00 0.09 0.00 88 1010.2
20160211235257 51 285 0.0 1.0 0.00 0.09 0.09 88 1010.2
20160211234757 51 285 0.0 0.0 0.00 0.09 0.09 88 1010.3
20160211233757 51 285 0.0 0.0 0.00 0.09 0.09 88 1010.5
20160211233257 52 285 0.0 0.0 0.00 0.09 0.09 88 1010.5
20160211232757 52 285 0.0 0.0 0.00 0.09 0.09 88 1010.5
20160211232257 52 285 0.0 0.0 0.00 0.09 0.09 88 1010.3
20160211231757 52 285 0.0 0.0 0.00 0.09 0.09 88 1010.5
20160211225757 52 285 0.0 1.0 0.00 0.09 0.09 88 1010.3
20160211224756 52 285 0.0 2.0 0.00 0.09 0.09 88 1010.2
20160211224257 52 284 0.0 2.0 0.00 0.09 0.09 88 1010.2
20160211223757 52 285 2.0 3.0 0.00 0.09 0.09 88 1010.3
20160211223257 52 285 0.0 3.0 0.00 0.09 0.09 88 1010.2
20160211222756 52 285 1.0 3.0 0.00 0.09 0.09 88 1010.3
20160211222257 51 284 0.0 1.0 0.00 0.09 0.09 88 1010.4
20160211220757 51 284 2.0 3.0 0.00 0.09 0.09 87 1010.4
20160211220257 51 284 2.0 2.0 0.00 0.09 0.09 86 1010.4
20160211215757 51 284 0.0 1.0 0.00 0.09 0.09 87 1010.3
20160211215257 51 284 0.0 2.0 0.00 0.09 0.09 86 1010.4
20160211214256 52 284 0.0 0.0 0.00 0.09 0.09 86 1010.5
20160211213757 52 284 0.0 2.0 0.00 0.09 0.09 86 1010.6
20160211212257 51 284 1.0 3.0 0.00 0.09 0.09 86 1010.8
20160211211757 51 283 0.0 2.0 0.00 0.09 0.09 86 1010.8
20160211211257 51 283 0.0 3.0 0.00 0.09 0.09 85 1010.8
20160211210257 51 283 0.0 0.0 0.00 0.09 0.09 85 1010.7
20160211205257 52 283 0.0 3.0 0.00 0.09 0.09 85 1010.7
20160211204757 52 283 0.0 2.0 0.00 0.09 0.09 85 1010.9
20160211201757 52 281 0.0 2.0 0.00 0.09 0.09 85 1010.4
20160211201258 52 281 0.0 0.0 0.00 0.09 0.09 85 1010.4
20160211200756 52 281 0.0 0.0 0.00 0.09 0.09 85 1010.3
20160211200257 52 281 0.0 0.0 0.00 0.09 0.09 85 1010.4
20160211195757 52 281 0.0 0.0 0.00 0.09 0.09 85 1010.4
20160211195257 52 281 0.0 2.0 0.00 0.09 0.09 85 1010.2
20160211194257 51 281 0.0 1.0 0.00 0.09 0.09 86 1009.9
20160211193756 51 281 0.0 1.0 0.00 0.09 0.09 86 1009.6
20160211192757 51 281 2.0 3.0 0.00 0.09 0.09 86 1009.5
20160211192256 52 281 0.0 2.0 0.00 0.09 0.09 86 1009.4
20160211191757 52 281 0.0 2.0 0.00 0.09 0.09 86 1009.4
20160211191256 52 281 2.0 3.0 0.00 0.09 0.09 86 1009.4
20160211190257 52 281 0.0 2.0 0.00 0.09 0.09 87 1009.5
20160211184757 52 281 0.0 1.0 0.00 0.09 0.09 87 1009.5
20160211184257 52 281 1.0 2.0 0.00 0.09 0.09 87 1009.5
20160211183256 53 237 0.0 1.0 0.00 0.09 0.09 87 1009.5
20160211182757 53 237 0.0 2.0 0.00 0.09 0.09 87 1009.4
20160211182257 53 237 0.0 2.0 0.00 0.09 0.09 87 1009.5
20160211181757 53 237 1.0 3.0 0.00 0.09 0.09 87 1009.4
20160211175756 54 237 0.0 2.0 0.00 0.09 0.09 86 1009.1
20160211175257 54 237 0.0 2.0 0.00 0.09 0.09 86 1009.1
20160211174257 55 237 1.0 3.0 0.00 0.09 0.09 86 1009.1
20160211173342 55 237 0.0 1.0 0.00 0.09 0.09 86 1008.9
20160211172843 55 237 1.0 3.0 0.00 0.09 0.09 86 1008.9
20160211171342 55 215 3.0 5.0 0.00 0.09 0.09 86 1008.5
20160211170841 55 214 1.0 2.0 0.00 0.09 0.09 86 1008.4
20160211170341 55 213 1.0 3.0 0.00 0.09 0.09 86 1008.5
20160211165841 55 213 4.0 7.0 0.00 0.09 0.09 86 1008.5
20160211163841 55 281 5.0 7.0 0.00 0.09 0.09 85 1008.2
20160211162341 56 206 4.0 7.0 0.00 0.09 0.09 84 1007.6
20160211161343 56 254 1.0 6.0 0.00 0.09 0.09 84 1007.6
20160211160842 56 237 3.0 7.0 0.00 0.09 0.09 84 1007.6
20160211155843 56 227 3.0 8.0 0.00 0.09 0.09 84 1007.7
20160211155341 56 208 5.0 10.0 0.00 0.09 0.09 84 1007.7
20160211153841 57 234 2.0 5.0 0.00 0.09 0.09 85 1007.7
20160211153341 56 234 2.0 3.0 0.00 0.09 0.09 85 1007.8
20160211151841 56 252 3.0 6.0 0.00 0.09 0.09 84 1007.6
20160211150841 57 198 3.0 7.0 0.00 0.09 0.09 84 1007.5
20160211145341 57 179 5.0 8.0 0.00 0.09 0.09 86 1007.9
20160211144841 57 246 2.0 8.0 0.00 0.09 0.09 87 1008.0
20160211144341 56 232 3.0 7.0 0.00 0.09 0.09 88 1008.1
20160211143842 56 199 2.0 7.0 0.00 0.09 0.09 88 1008.3
20160211142841 55 219 3.0 7.0 0.00 0.09 0.09 89 1008.3
20160211141841 55 205 2.0 6.0 0.00 0.09 0.09 89 1008.4
20160211140841 54 196 2.0 8.0 0.00 0.09 0.09 89 1008.3
20160211135841 55 198 3.0 5.0 0.00 0.09 0.09 89 1008.5
20160211135342 55 197 2.0 5.0 0.01 0.09 0.09 89 1008.5
20160211134841 54 197 2.0 5.0 0.01 0.09 0.09 89 1008.5
20160211134341 55 197 1.0 3.0 0.01 0.09 0.09 89 1008.7
20160211133841 54 197 1.0 5.0 0.01 0.09 0.09 89 1008.7
20160211133341 54 195 1.0 7.0 0.01 0.09 0.09 89 1008.6
20160211132341 55 189 3.0 7.0 0.01 0.09 0.09 89 1008.6
20160211131842 55 211 2.0 6.0 0.01 0.09 0.09 89 1008.7
20160211130841 55 209 2.0 6.0 0.01 0.09 0.09 89 1008.6
20160211124841 55 263 0.0 3.0 0.00 0.09 0.09 90 1009.1
20160211124341 55 263 1.0 3.0 0.00 0.09 0.09 90 1009.3
20160211123841 55 263 1.0 3.0 0.00 0.09 0.09 90 1009.5
20160211123340 55 263 0.0 3.0 0.00 0.09 0.09 90 1009.4
20160211122843 55 263 1.0 3.0 0.00 0.09 0.09 90 1009.6
20160211121858 55 263 2.0 5.0 0.01 0.09 0.09 90 1009.7
20160211120841 54 314 0.0 2.0 0.01 0.09 0.09 90 1009.7
20160211120341 54 314 0.0 1.0 0.01 0.09 0.09 90 1009.6
20160211115842 54 314 0.0 0.0 0.01 0.09 0.09 90 1009.7
20160211115341 54 314 0.0 2.0 0.01 0.09 0.09 90 1009.8
20160211114841 54 314 0.0 0.0 0.01 0.09 0.09 90 1009.9
20160211113341 54 314 0.0 0.0 0.01 0.09 0.09 90 1010.3
20160211112841 54 314 0.0 0.0 0.01 0.09 0.09 90 1010.4
20160211112341 54 314 0.0 0.0 0.00 0.08 0.08 90 1010.6
20160211111341 53 314 0.0 1.0 0.00 0.08 0.08 90 1010.8
20160211110341 53 314 0.0 0.0 0.00 0.08 0.08 90 1010.8
20160211104341 53 314 0.0 0.0 0.00 0.08 0.08 90 1010.9
20160211102342 53 314 0.0 0.0 0.00 0.08 0.08 90 1011.0
20160211101841 53 314 0.0 0.0 0.00 0.08 0.08 90 1011.0
20160211101341 53 314 0.0 1.0 0.00 0.08 0.08 90 1011.0
20160211100341 52 314 0.0 1.0 0.01 0.08 0.08 90 1011.0
20160211095841 52 314 0.0 3.0 0.01 0.08 0.08 90 1010.9
20160211095341 52 314 1.0 3.0 0.01 0.08 0.08 90 1010.8